When you browse on this site, cookies collect data to enhance your experience and personalize the content and advertising you see.
Visit our Privacy Policy to learn more. By continuing to use the site, you agree to this use of cookies and data.
  • In United Kingdom
  • List of Countries
  • For 7 days
  • Water Temperature
  • Satellite Maps
  • Weather Map
  • Weather Widgets
  • user-avatar
    Login

    Hourly Weather Chachapoyas

    Today, 25 April, Thursday

    Time Temperature Precipitation Wind Pressure Humidity
    00:00 +11°C° 0.2 mm 1 mps 574 mmHg 93%
    01:00 +11°C° 0.2 mm 1 mps 574 mmHg 93%
    02:00 +11°C° 0.1 mm 1 mps 574 mmHg 92%
    03:00 +11°C° 0.1 mm 1 mps 574 mmHg 92%
    04:00 +11°C° 0.1 mm 1 mps 574 mmHg 91%
    05:00 +11°C° 0.3 mm 1 mps 574 mmHg 91%
    06:00 +11°C° 0.3 mm 1 mps 574 mmHg 90%
    07:00 +12°C° 0.3 mm 1 mps 575 mmHg 89%
    08:00 +13°C° 0.3 mm 2 mps 576 mmHg 84%
    09:00 +15°C° 0.3 mm 2 mps 577 mmHg 78%
    10:00 +16°C° 0.3 mm 2 mps 578 mmHg 73%
    11:00 +17°C° 0.3 mm 2 mps 578 mmHg 69%
    12:00 +18°C° 0.3 mm 2 mps 578 mmHg 66%
    13:00 +19°C° 0.3 mm 2 mps 578 mmHg 62%
    14:00 +19°C° 0.4 mm 2 mps 577 mmHg 62%
    15:00 +19°C° 0.4 mm 2 mps 576 mmHg 63%
    16:00 +19°C° 0.4 mm 1 mps 576 mmHg 63%
    17:00 +16°C° 0 mm 1 mps 575 mmHg 70%
    18:00 +15°C° 0 mm 1 mps 574 mmHg 78%
    19:00 +12°C° 0 mm 0 mps 574 mmHg 86%
    20:00 +12°C° 0 mm 1 mps 574 mmHg 85%
    21:00 +12°C° 0 mm 1 mps 574 mmHg 85%
    22:00 +11°C° 0 mm 1 mps 574 mmHg 85%
    23:00 +11°C° 0 mm 1 mps 574 mmHg 83%

    Tomorrow, 26 April, Friday

    Time Temperature Precipitation Wind Pressure Humidity
    00:00 +11°C° 0 mm 1 mps 574 mmHg 81%
    01:00 +11°C° 0 mm 1 mps 574 mmHg 79%
    02:00 +11°C° 0 mm 1 mps 574 mmHg 80%
    03:00 +10°C° 0 mm 1 mps 574 mmHg 80%
    04:00 +10°C° 0 mm 1 mps 573 mmHg 80%
    05:00 +11°C° 0 mm 1 mps 574 mmHg 79%
    06:00 +11°C° 0 mm 1 mps 574 mmHg 79%
    07:00 +12°C° 0 mm 1 mps 575 mmHg 78%
    08:00 +15°C° 0 mm 2 mps 576 mmHg 69%
    09:00 +18°C° 0 mm 2 mps 578 mmHg 60%
    10:00 +21°C° 0 mm 3 mps 579 mmHg 51%
    11:00 +21°C° 0.1 mm 3 mps 579 mmHg 51%
    12:00 +21°C° 0.1 mm 3 mps 578 mmHg 50%
    13:00 +21°C° 0.1 mm 3 mps 578 mmHg 50%
    14:00 +21°C° 0.1 mm 3 mps 577 mmHg 52%
    15:00 +20°C° 0.1 mm 2 mps 576 mmHg 54%
    16:00 +20°C° 0.1 mm 2 mps 575 mmHg 55%
    17:00 +18°C° 0.1 mm 2 mps 575 mmHg 65%
    18:00 +15°C° 0.1 mm 1 mps 574 mmHg 75%
    19:00 +13°C° 0.1 mm 1 mps 574 mmHg 85%
    20:00 +13°C° 0 mm 1 mps 574 mmHg 84%
    21:00 +13°C° 0 mm 1 mps 574 mmHg 83%
    22:00 +12°C° 0 mm 1 mps 575 mmHg 83%
    23:00 +12°C° 0.1 mm 1 mps 575 mmHg 82%

    Day after tomorrow, 27 April, Saturday

    Time Temperature Precipitation Wind Pressure Humidity
    00:00 +12°C° 0.1 mm 1 mps 574 mmHg 82%
    01:00 +12°C° 0.1 mm 1 mps 574 mmHg 81%
    02:00 +12°C° 0 mm 1 mps 574 mmHg 83%
    03:00 +12°C° 0 mm 1 mps 573 mmHg 84%
    04:00 +11°C° 0 mm 1 mps 573 mmHg 85%
    05:00 +12°C° 0 mm 1 mps 573 mmHg 83%
    06:00 +12°C° 0 mm 1 mps 574 mmHg 80%
    07:00 +13°C° 0 mm 1 mps 575 mmHg 78%
    08:00 +15°C° 0 mm 1 mps 576 mmHg 69%
    09:00 +18°C° 0 mm 2 mps 577 mmHg 61%
    10:00 +21°C° 0 mm 2 mps 579 mmHg 53%
    11:00 +20°C° 0.3 mm 2 mps 578 mmHg 55%
    12:00 +20°C° 0.3 mm 2 mps 577 mmHg 58%
    13:00 +20°C° 0.3 mm 2 mps 576 mmHg 60%
    14:00 +19°C° 0.4 mm 2 mps 576 mmHg 62%
    15:00 +19°C° 0.4 mm 2 mps 575 mmHg 64%
    16:00 +20°C° 0.4 mm 1 mps 574 mmHg 66%
    17:00 +18°C° 0.4 mm 1 mps 574 mmHg 75%
    18:00 +15°C° 0.4 mm 1 mps 573 mmHg 83%
    19:00 +13°C° 0.4 mm 0 mps 573 mmHg 91%
    20:00 +13°C° 0.4 mm 0 mps 574 mmHg 91%
    21:00 +13°C° 0.4 mm 1 mps 574 mmHg 92%
    22:00 +13°C° 0.4 mm 1 mps 575 mmHg 92%
    23:00 +13°C° 0.4 mm 1 mps 574 mmHg 92%

    28 April, Sunday

    Time Temperature Precipitation Wind Pressure Humidity
    00:00 +13°C° 0.4 mm 1 mps 574 mmHg 92%
    01:00 +13°C° 0.4 mm 1 mps 574 mmHg 92%
    02:00 +11°C° 0.2 mm 0 mps 573 mmHg 92%
    03:00 +11°C° 0.2 mm 0 mps 573 mmHg 92%
    04:00 +11°C° 0.2 mm 0 mps 573 mmHg 92%
    05:00 +11°C° 0.2 mm 0 mps 573 mmHg 90%
    06:00 +12°C° 0.2 mm 0 mps 574 mmHg 89%
    07:00 +13°C° 0.2 mm 1 mps 574 mmHg 87%
    08:00 +14°C° 0.6 mm 1 mps 575 mmHg 83%
    09:00 +15°C° 0.6 mm 1 mps 576 mmHg 79%
    10:00 +16°C° 0.6 mm 1 mps 577 mmHg 75%
    11:00 +16°C° 0.8 mm 1 mps 576 mmHg 77%
    12:00 +16°C° 0.8 mm 1 mps 575 mmHg 79%
    13:00 +15°C° 0.8 mm 1 mps 575 mmHg 81%
    14:00 +16°C° 0.3 mm 1 mps 574 mmHg 77%
    15:00 +18°C° 0.3 mm 1 mps 574 mmHg 74%
    16:00 +18°C° 0.3 mm 1 mps 574 mmHg 70%
    17:00 +16°C° 0.4 mm 1 mps 574 mmHg 76%
    18:00 +14°C° 0.4 mm 0 mps 574 mmHg 82%
    19:00 +12°C° 0.4 mm 0 mps 573 mmHg 88%
    20:00 +12°C° 0.6 mm 0 mps 574 mmHg 89%
    21:00 +12°C° 0.6 mm 0 mps 574 mmHg 90%
    22:00 +12°C° 0.6 mm 1 mps 574 mmHg 91%
    23:00 +12°C° 0.3 mm 1 mps 574 mmHg 90%

    29 April, Monday

    Time Temperature Precipitation Wind Pressure Humidity
    00:00 +12°C° 0.3 mm 1 mps 574 mmHg 90%
    01:00 +12°C° 0.3 mm 1 mps 573 mmHg 90%
    02:00 +11°C° 0.2 mm 1 mps 573 mmHg 90%
    03:00 +11°C° 0.2 mm 1 mps 573 mmHg 90%
    04:00 +11°C° 0.2 mm 1 mps 573 mmHg 91%
    05:00 +12°C° 0.2 mm 1 mps 573 mmHg 89%
    06:00 +12°C° 0.2 mm 1 mps 574 mmHg 88%
    07:00 +13°C° 0.2 mm 1 mps 574 mmHg 86%
    08:00 +14°C° 0.5 mm 1 mps 575 mmHg 80%
    09:00 +16°C° 0.5 mm 1 mps 576 mmHg 74%
    10:00 +19°C° 0.5 mm 1 mps 577 mmHg 67%
    11:00 +19°C° 0.8 mm 1 mps 577 mmHg 67%
    12:00 +19°C° 0.8 mm 1 mps 576 mmHg 67%
    13:00 +19°C° 0.8 mm 1 mps 576 mmHg 67%
    14:00 +19°C° 0.7 mm 1 mps 575 mmHg 68%
    15:00 +19°C° 0.7 mm 1 mps 574 mmHg 68%
    16:00 +19°C° 0.7 mm 1 mps 574 mmHg 69%
    17:00 +16°C° 0.4 mm 0 mps 574 mmHg 75%
    18:00 +14°C° 0.4 mm 0 mps 574 mmHg 81%
    19:00 +13°C° 0.4 mm 0 mps 573 mmHg 88%
    20:00 +12°C° 0.1 mm 0 mps 574 mmHg 89%
    21:00 +12°C° 0.1 mm 0 mps 574 mmHg 91%
    22:00 +13°C° 0.1 mm 1 mps 574 mmHg 93%
    23:00 +12°C° 0.2 mm 1 mps 574 mmHg 93%

    30 April, Tuesday

    Time Temperature Precipitation Wind Pressure Humidity
    00:00 +11°C° 0.2 mm 0 mps 573 mmHg 93%
    01:00 +11°C° 0.2 mm 0 mps 573 mmHg 93%
    02:00 +11°C° 0.2 mm 0 mps 573 mmHg 92%
    03:00 +11°C° 0.2 mm 0 mps 573 mmHg 92%
    04:00 +11°C° 0.2 mm 0 mps 573 mmHg 91%
    05:00 +12°C° 0.4 mm 0 mps 573 mmHg 91%
    06:00 +12°C° 0.4 mm 0 mps 574 mmHg 90%
    07:00 +12°C° 0.4 mm 0 mps 574 mmHg 89%
    08:00 +13°C° 0.7 mm 0 mps 575 mmHg 87%
    09:00 +13°C° 0.7 mm 0 mps 575 mmHg 85%
    10:00 +15°C° 0.7 mm 1 mps 576 mmHg 83%
    11:00 +16°C° 0.4 mm 1 mps 576 mmHg 80%
    12:00 +18°C° 0.4 mm 1 mps 575 mmHg 77%
    13:00 +19°C° 0.4 mm 1 mps 575 mmHg 73%
    14:00 +19°C° 0.1 mm 1 mps 575 mmHg 72%
    15:00 +19°C° 0.1 mm 1 mps 574 mmHg 71%
    16:00 +19°C° 0.1 mm 1 mps 574 mmHg 70%
    17:00 +18°C° 0.3 mm 1 mps 574 mmHg 77%
    18:00 +15°C° 0.3 mm 1 mps 573 mmHg 84%
    19:00 +13°C° 0.3 mm 0 mps 573 mmHg 91%
    20:00 +13°C° 0.6 mm 0 mps 574 mmHg 92%
    21:00 +13°C° 0.6 mm 0 mps 574 mmHg 93%
    22:00 +13°C° 0.6 mm 0 mps 575 mmHg 94%
    23:00 +13°C° 1.1 mm 0 mps 575 mmHg 95%
    Show more